Weather History for Independence, KS

Change the Weather History Date:

Saturday, December 7, 2013

  Actual Average (KCFV) Record (KCFV)
Temperature  
Mean Temperature 16 °F -  
Max Temperature 23 °F 47 °F 68 °F (2001)
Min Temperature 8 °F 28 °F 7 °F (2006)
Degree Days  
Heating Degree Days 50    
Moisture  
Dew Point 6 °F    
Average Humidity 65    
Maximum Humidity 79    
Minimum Humidity 54    
Precipitation  
Precipitation 0.00 in - - ()
Sea Level Pressure  
Sea Level Pressure 30.55 in    
Wind  
Wind Speed 10 mph (NE)    
Max Wind Speed 16 mph    
Max Gust Speed 18 mph    
Visibility 10 miles    
Events      
Averages and records for this station are not official NWS values.
T = Trace of Precipitation, MM = Missing Value Source: NWS Daily Summary

Daily Weather History Graph

Daily Weather History Graph

Search for Another Location

Airport:

Trip Planner

Search our weather history database for the weather conditions in past years. The results will help you decide how hot, cold, wet, or windy it might be!

Date:

Astronomy

Dec. 07, 2013 Rise Set
Actual Time 7:23 AM CST 5:05 PM CST
Civil Twilight 6:54 AM CST 5:34 PM CST
Nautical Twilight 6:22 AM CST 6:07 PM CST
Astronomical Twilight 5:50 AM CST 6:38 PM CST
Moon 11:14 AM CST (12/7) 10:43 PM CST (12/7)
Length of Visible Light 10h 39m
Length of Day
9h 42m
Waxing Crescent, 29% of the Moon is Illuminated
Dec 7
Waxing Crescent
Dec 9
First Quarter
Dec 17
Full
Dec 25
Last Quarter
Jan 1
New

Hourly Weather History & Observations

Time (CST) Temp. Windchill Dew Point Humidity Pressure Visibility Wind Dir Wind Speed Gust Speed Precip Events Conditions
12:15 AM 12.2 °F -3.1 °F 3.2 °F 67% 30.62 in 10.0 mi North 13.8 mph - N/A   Clear
12:35 AM 12.2 °F -1.8 °F 3.2 °F 67% 30.62 in 10.0 mi NNE 11.5 mph - N/A   Clear
12:55 AM 12.2 °F -1.0 °F 3.2 °F 67% 30.64 in 10.0 mi North 10.4 mph - N/A   Clear
1:15 AM 12.2 °F -1.0 °F 3.2 °F 67% 30.62 in 10.0 mi North 10.4 mph - N/A   Clear
1:35 AM 12.2 °F -0.2 °F 3.2 °F 67% 30.62 in 10.0 mi North 9.2 mph - N/A   Clear
1:55 AM 10.4 °F -1.5 °F 3.2 °F 73% 30.64 in 10.0 mi NNE 8.1 mph - N/A   Clear
2:15 AM 10.4 °F -1.5 °F 3.2 °F 73% 30.65 in 10.0 mi North 8.1 mph - N/A   Clear
2:35 AM 10.4 °F -0.4 °F 3.2 °F 73% 30.65 in 10.0 mi North 6.9 mph - N/A   Clear
2:55 AM 10.4 °F -0.4 °F 3.2 °F 73% 30.66 in 10.0 mi North 6.9 mph - N/A   Clear
3:15 AM 8.6 °F -2.6 °F 3.2 °F 79% 30.66 in 10.0 mi North 6.9 mph - N/A   Clear
3:35 AM 8.6 °F -3.7 °F 3.2 °F 79% 30.66 in 10.0 mi North 8.1 mph - N/A   Clear
3:55 AM 10.4 °F -2.4 °F 3.2 °F 73% 30.65 in 10.0 mi North 9.2 mph - N/A   Clear
4:15 AM 10.4 °F -2.4 °F 3.2 °F 73% 30.65 in 10.0 mi North 9.2 mph - N/A   Clear
4:35 AM 10.4 °F -4.1 °F 3.2 °F 73% 30.64 in 10.0 mi North 11.5 mph - N/A   Clear
4:55 AM 10.4 °F -2.4 °F 3.2 °F 73% 30.65 in 10.0 mi North 9.2 mph - N/A   Clear
5:15 AM 10.4 °F -2.4 °F 3.2 °F 73% 30.66 in 10.0 mi North 9.2 mph - N/A   Clear
5:35 AM 8.6 °F -2.6 °F 3.2 °F 79% 30.66 in 10.0 mi NNE 6.9 mph - N/A   Clear
5:55 AM 8.6 °F -3.7 °F 3.2 °F 79% 30.66 in 10.0 mi NNE 8.1 mph - N/A   Clear
6:15 AM 8.6 °F -4.7 °F 3.2 °F 79% 30.66 in 10.0 mi NNE 9.2 mph - N/A   Clear
6:35 AM 8.6 °F -3.7 °F 3.2 °F 79% 30.66 in 10.0 mi NNE 8.1 mph - N/A   Clear
6:55 AM 8.6 °F -2.6 °F 3.2 °F 79% 30.67 in 10.0 mi NNE 6.9 mph - N/A   Clear
7:15 AM 8.6 °F -4.7 °F 3.2 °F 79% 30.67 in 10.0 mi NNE 9.2 mph - N/A   Clear
7:35 AM 8.6 °F -3.7 °F 3.2 °F 79% 30.67 in 10.0 mi NNE 8.1 mph - N/A   Clear
7:55 AM 10.4 °F -0.4 °F 3.2 °F 73% 30.66 in 10.0 mi NE 6.9 mph - N/A   Clear
8:15 AM 10.4 °F -2.4 °F 3.2 °F 73% 30.67 in 10.0 mi NE 9.2 mph - N/A   Clear
8:35 AM 12.2 °F -1.0 °F 3.2 °F 67% 30.66 in 10.0 mi NE 10.4 mph 16.1 mph N/A   Clear
8:55 AM 12.2 °F -1.8 °F 5.0 °F 73% 30.67 in 10.0 mi NE 11.5 mph - N/A   Clear
9:15 AM 14.0 °F 1.2 °F 5.0 °F 67% 30.68 in 10.0 mi NE 10.4 mph - N/A   Clear
9:35 AM 14.0 °F 0.5 °F 5.0 °F 67% 30.69 in 10.0 mi ENE 11.5 mph - N/A   Clear
9:55 AM 14.0 °F 0.5 °F 5.0 °F 67% 30.67 in 10.0 mi NE 11.5 mph - N/A   Clear
10:15 AM 14.0 °F 0.5 °F 5.0 °F 67% 30.67 in 10.0 mi NE 11.5 mph - N/A   Clear
10:35 AM 15.8 °F 3.4 °F 5.0 °F 62% 30.67 in 10.0 mi ENE 10.4 mph - N/A   Clear
10:55 AM 17.6 °F 7.3 °F 5.0 °F 58% 30.67 in 10.0 mi NE 8.1 mph - N/A   Clear
11:15 AM 17.6 °F 9.3 °F 5.0 °F 58% 30.67 in 10.0 mi ENE 5.8 mph - N/A   Clear
11:35 AM 17.6 °F 7.3 °F 5.0 °F 58% 30.65 in 10.0 mi ENE 8.1 mph - N/A   Clear
11:55 AM 19.4 °F 9.5 °F 6.8 °F 58% 30.64 in 10.0 mi ENE 8.1 mph - N/A   Clear
12:15 PM 19.4 °F 11.5 °F 5.0 °F 54% 30.63 in 10.0 mi NE 5.8 mph - N/A   Clear
12:35 PM 19.4 °F 9.5 °F 5.0 °F 54% 30.60 in 10.0 mi NE 8.1 mph - N/A   Clear
12:55 PM 19.4 °F 11.5 °F 5.0 °F 54% 30.58 in 10.0 mi East 5.8 mph - N/A   Clear
1:15 PM 21.2 °F 11.7 °F 6.8 °F 54% 30.56 in 10.0 mi NE 8.1 mph - N/A   Clear
1:35 PM 21.2 °F 9.5 °F 6.8 °F 54% 30.53 in 10.0 mi ENE 11.5 mph - N/A   Clear
1:55 PM 21.2 °F 12.6 °F 6.8 °F 54% 30.54 in 10.0 mi ENE 6.9 mph - N/A   Clear
2:15 PM 21.2 °F 10.1 °F 6.8 °F 54% 30.51 in 10.0 mi NE 10.4 mph - N/A   Clear
2:35 PM 21.2 °F 10.1 °F 8.6 °F 58% 30.48 in 10.0 mi ENE 10.4 mph - N/A   Clear
2:55 PM 21.2 °F 10.1 °F 8.6 °F 58% 30.48 in 10.0 mi ENE 10.4 mph - N/A   Scattered Clouds
3:15 PM 21.2 °F 10.1 °F 8.6 °F 58% 30.47 in 10.0 mi NE 10.4 mph - N/A   Clear
3:35 PM 21.2 °F 10.1 °F 8.6 °F 58% 30.47 in 10.0 mi NE 10.4 mph - N/A   Clear
3:55 PM 21.2 °F 10.1 °F 8.6 °F 58% 30.47 in 10.0 mi NE 10.4 mph - N/A   Clear
4:15 PM 21.2 °F 10.9 °F 8.6 °F 58% 30.48 in 10.0 mi NE 9.2 mph - N/A   Clear
4:35 PM 21.2 °F 14.9 °F 8.6 °F 58% 30.48 in 10.0 mi ENE 4.6 mph - N/A   Scattered Clouds
4:55 PM 21.2 °F 10.9 °F 8.6 °F 58% 30.48 in 10.0 mi ENE 9.2 mph - N/A   Mostly Cloudy
5:15 PM 21.2 °F 11.7 °F 8.6 °F 58% 30.48 in 10.0 mi East 8.1 mph - N/A   Overcast
5:35 PM 21.2 °F 13.6 °F 8.6 °F 58% 30.48 in 10.0 mi ENE 5.8 mph - N/A   Mostly Cloudy
5:55 PM 21.2 °F 10.9 °F 10.4 °F 63% 30.47 in 10.0 mi ENE 9.2 mph - N/A   Overcast
6:15 PM 21.2 °F 10.9 °F 10.4 °F 63% 30.47 in 10.0 mi ENE 9.2 mph - N/A   Overcast
6:35 PM 21.2 °F 11.7 °F 10.4 °F 63% 30.46 in 10.0 mi ENE 8.1 mph - N/A   Overcast
6:55 PM 21.2 °F 11.7 °F 10.4 °F 63% 30.45 in 10.0 mi ENE 8.1 mph - N/A   Mostly Cloudy
7:15 PM 21.2 °F 11.7 °F 10.4 °F 63% 30.44 in 10.0 mi ENE 8.1 mph - N/A   Overcast
7:35 PM 21.2 °F 10.9 °F 10.4 °F 63% 30.43 in 10.0 mi ENE 9.2 mph - N/A   Overcast
7:55 PM 21.2 °F 10.9 °F 10.4 °F 63% 30.41 in 10.0 mi East 9.2 mph - N/A   Overcast
8:15 PM 21.2 °F 11.7 °F 12.2 °F 68% 30.40 in 10.0 mi East 8.1 mph - N/A   Overcast
8:35 PM 21.2 °F 7.8 °F 12.2 °F 68% 30.39 in 10.0 mi East 15.0 mph - N/A   Overcast
8:55 PM 21.2 °F 9.5 °F 10.4 °F 63% 30.38 in 10.0 mi East 11.5 mph - N/A   Overcast
9:15 PM 21.2 °F 7.3 °F 10.4 °F 63% 30.37 in 10.0 mi East 16.1 mph - N/A   Overcast
9:35 PM 21.2 °F 8.3 °F 10.4 °F 63% 30.36 in 10.0 mi East 13.8 mph - N/A   Overcast
9:55 PM 21.2 °F 8.3 °F 10.4 °F 63% 30.35 in 10.0 mi East 13.8 mph 18.4 mph N/A   Overcast
10:15 PM 21.2 °F 8.3 °F 10.4 °F 63% 30.35 in 10.0 mi East 13.8 mph 17.3 mph N/A   Overcast
10:35 PM 21.2 °F 8.9 °F 10.4 °F 63% 30.35 in 10.0 mi East 12.7 mph 17.3 mph N/A   Overcast
10:55 PM 21.2 °F 9.5 °F 10.4 °F 63% 30.35 in 10.0 mi East 11.5 mph - N/A   Overcast
11:15 PM 23.0 °F 11.7 °F 10.4 °F 59% 30.34 in 10.0 mi East 11.5 mph - N/A   Overcast
11:35 PM 23.0 °F 12.4 °F 10.4 °F 59% 30.33 in 10.0 mi ESE 10.4 mph - N/A   Overcast
11:55 PM 21.2 °F 12.6 °F 10.4 °F 63% 30.32 in 10.0 mi ESE 6.9 mph - N/A   Overcast